Location: İstanbul
(41.0082°N, 28.9784°E)
Time: 07:07:22
(UTC+03:00)

DOVE 4 - Pass Details

Date: 01 May 2024
Orbit: 582 x 778 km, 97.7° (Epoch: 27 May)

Event Time Altitude Azimuth Distance (km) Brightness Sun altitude
Rises 23:54:07 0° 355° (N) 2,976 ? -31.5°
Reaches altitude 10° 23:56:51 10° 337° (NNW) 2,098 ? -31.6°
Maximum altitude 00:00:00 19° 294° (WNW) 1,634 ? -31.8°
Enters shadow 00:00:52 18° 279° (W) 1,686 ? -31.9°
